TimePST,TemperatureF,Dew PointF,Humidity,Sea Level PressureIn,VisibilityMPH,Wind Direction,Wind SpeedMPH,Gust SpeedMPH,PrecipitationIn,Events,Conditions,WindDirDegrees,DateUTC
12:56 AM,46.0,41.0,83,30.47,8.0,Calm,Calm,-,N/A,,Mostly Cloudy,0,2013-12-16 08:56:00
1:56 AM,46.9,43.0,86,30.48,9.0,ESE,5.8,-,N/A,,Mostly Cloudy,110,2013-12-16 09:56:00
2:56 AM,46.0,41.0,83,30.50,10.0,South,5.8,-,N/A,,Mostly Cloudy,190,2013-12-16 10:56:00
3:56 AM,44.1,39.9,85,30.49,10.0,South,5.8,-,N/A,,Scattered Clouds,190,2013-12-16 11:56:00
4:56 AM,45.0,39.9,82,30.48,10.0,SE,6.9,-,N/A,,Mostly Cloudy,130,2013-12-16 12:56:00
5:17 AM,45.0,39.9,82,30.46,10.0,SSE,6.9,-,N/A,,Mostly Cloudy,150,2013-12-16 13:17:00
5:56 AM,44.1,39.9,85,30.48,10.0,SE,6.9,-,N/A,,Mostly Cloudy,130,2013-12-16 13:56:00
6:14 AM,45.0,39.9,82,30.47,8.0,East,3.5,-,N/A,,Overcast,100,2013-12-16 14:14:00
6:56 AM,44.1,39.0,82,30.48,8.0,SE,4.6,-,N/A,,Overcast,130,2013-12-16 14:56:00
7:56 AM,45.0,41.0,86,30.50,8.0,ESE,4.6,-,N/A,,Overcast,110,2013-12-16 15:56:00
8:18 AM,45.0,39.9,82,30.48,8.0,ESE,5.8,-,N/A,,Overcast,110,2013-12-16 16:18:00
8:47 AM,45.0,41.0,86,30.49,8.0,SE,6.9,-,N/A,,Overcast,140,2013-12-16 16:47:00
8:56 AM,46.0,41.0,83,30.51,8.0,SE,5.8,-,N/A,,Overcast,130,2013-12-16 16:56:00
9:56 AM,48.0,42.1,80,30.50,9.0,ESE,10.4,-,N/A,,Overcast,120,2013-12-16 17:56:00
10:56 AM,48.9,43.0,80,30.49,10.0,SE,6.9,-,N/A,,Overcast,130,2013-12-16 18:56:00
11:56 AM,51.1,42.1,71,30.48,10.0,ESE,5.8,-,N/A,,Overcast,120,2013-12-16 19:56:00
12:56 PM,51.1,41.0,68,30.47,10.0,East,8.1,-,N/A,,Overcast,100,2013-12-16 20:56:00
1:56 PM,51.1,39.9,66,30.45,10.0,ESE,8.1,-,N/A,,Mostly Cloudy,110,2013-12-16 21:56:00
2:56 PM,51.1,39.9,66,30.44,10.0,ESE,5.8,-,N/A,,Mostly Cloudy,120,2013-12-16 22:56:00
3:56 PM,48.9,39.0,69,30.42,10.0,Calm,Calm,-,N/A,,Mostly Cloudy,0,2013-12-16 23:56:00
4:56 PM,46.0,39.0,76,30.40,10.0,Calm,Calm,-,N/A,,Mostly Cloudy,0,2013-12-17 00:56:00
5:56 PM,43.0,37.9,82,30.39,10.0,Calm,Calm,-,N/A,,Mostly Cloudy,0,2013-12-17 01:56:00
6:56 PM,39.9,35.1,83,30.37,10.0,Calm,Calm,-,N/A,,Mostly Cloudy,0,2013-12-17 02:56:00
7:56 PM,39.9,37.0,89,30.35,9.0,Calm,Calm,-,N/A,,Mostly Cloudy,0,2013-12-17 03:56:00
8:56 PM,42.1,37.9,85,30.34,9.0,Calm,Calm,-,N/A,Fog,Patches of Fog,0,2013-12-17 04:56:00
9:04 PM,39.0,36.0,89,30.32,9.0,ESE,3.5,-,N/A,Fog,Patches of Fog,110,2013-12-17 05:04:00
9:56 PM,39.0,36.0,89,30.32,9.0,Calm,Calm,-,N/A,Fog,Patches of Fog,0,2013-12-17 05:56:00
10:56 PM,37.9,36.0,93,30.31,3.0,East,3.5,-,N/A,,Scattered Clouds,100,2013-12-17 06:56:00
11:56 PM,37.0,33.1,86,30.28,8.0,East,8.1,-,N/A,Fog,Patches of Fog,100,2013-12-17 07:56:00